Midland, VA

3:56 AM EST on December 07, 2016 (GMT -0500)
Warrenton

Weather History for KHWY - January, 2014

Change the Weather History Date:

Saturday, January 4, 2014

  Actual Average (KHEF) Record (KHEF)
Temperature  
Mean Temperature 21 °F -  
Max Temperature 35 °F 43 °F 69 °F (2000)
Min Temperature 7 °F 24 °F 8 °F (2014)
Degree Days  
Heating Degree Days 44    
Moisture  
Dew Point 14 °F    
Average Humidity 73    
Maximum Humidity 100    
Minimum Humidity 49    
Precipitation  
Precipitation 0.00 in - - ()
Sea Level Pressure  
Sea Level Pressure 30.40 in    
Wind  
Wind Speed 2 mph (SSW)    
Max Wind Speed 10 mph    
Max Gust Speed 16 mph    
Visibility 10 miles    
Events      
Averages and records for this station are not official NWS values.
T = Trace of Precipitation, MM = Missing Value Source: NWS Daily Summary

Daily Weather History Graph

Daily Weather History Graph

Search for Another Location

Airport or City:

Trip Planner

Search our weather history database for the weather conditions in past years. The results will help you decide how hot, cold, wet, or windy it might be!

Date:

Astronomy

Jan. 04, 2014 Rise Set
Actual Time 7:28 AM EST 5:03 PM EST
Civil Twilight 6:59 AM EST 5:32 PM EST
Nautical Twilight 6:26 AM EST 6:05 PM EST
Astronomical Twilight 5:54 AM EST 6:37 PM EST
Moon 9:36 AM EST (1/4) 9:17 PM EST (1/4)
Length of Visible Light 10h 33m
Length of Day
9h 34m
Waxing Crescent, 15% of the Moon is Illuminated
Jan 4
Waxing Crescent
Jan 7
First Quarter
Jan 15
Full
Jan 24
Last Quarter
Jan 30
New

Hourly Weather History & Observations

Time (EST) Temp. Windchill Dew Point Humidity Pressure Visibility Wind Dir Wind Speed Gust Speed Precip Events Conditions
12:15 AM 8.2 °F - 8.1 °F 99% 30.48 in 10.0 mi Calm Calm - N/A   Clear
12:35 AM 8.8 °F - 8.6 °F 99% 30.48 in 10.0 mi Calm Calm - N/A   Clear
12:55 AM 7.9 °F - 7.7 °F 99% 30.48 in 10.0 mi Calm Calm - N/A   Clear
1:15 AM 8.1 °F - 7.7 °F 98% 30.48 in 10.0 mi Calm Calm - N/A   Clear
1:35 AM 9.0 °F - 9.0 °F 100% 30.48 in 10.0 mi Calm Calm - N/A   Clear
1:55 AM 9.3 °F - 9.0 °F 98% 30.48 in 10.0 mi Calm Calm - N/A   Clear
2:15 AM 9.0 °F - 8.6 °F 98% 30.49 in 10.0 mi Calm Calm - N/A   Clear
2:35 AM 8.2 °F - 8.1 °F 99% 30.49 in 10.0 mi Calm Calm - N/A   Clear
2:55 AM 8.4 °F - 8.1 °F 98% 30.48 in 10.0 mi Calm Calm - N/A   Clear
3:15 AM 8.6 °F - 8.2 °F 98% 30.48 in 10.0 mi Calm Calm - N/A   Clear
3:35 AM 8.1 °F - 7.7 °F 98% 30.48 in 10.0 mi Calm Calm - N/A   Clear
3:55 AM 7.3 °F - 6.8 °F 98% 30.47 in 10.0 mi Calm Calm - N/A   Clear
4:15 AM 8.8 °F - 8.6 °F 99% 30.47 in 10.0 mi Calm Calm - N/A   Clear
4:35 AM 8.6 °F - 8.4 °F 99% 30.48 in 10.0 mi Calm Calm - N/A   Clear
4:55 AM 8.1 °F - 7.7 °F 98% 30.48 in 10.0 mi Calm Calm - N/A   Clear
5:15 AM 8.4 °F - 7.9 °F 98% 30.49 in 10.0 mi Calm Calm - N/A   Clear
5:35 AM 7.9 °F - 7.5 °F 98% 30.49 in 10.0 mi Calm Calm - N/A   Clear
5:55 AM 8.1 °F - 7.7 °F 98% 30.49 in 10.0 mi Calm Calm - N/A   Clear
6:15 AM 7.7 °F - 7.3 °F 98% 30.49 in 10.0 mi Calm Calm - N/A   Clear
6:35 AM 7.9 °F - 7.5 °F 98% 30.50 in 10.0 mi Calm Calm - N/A   Clear
6:55 AM 8.2 °F - 7.9 °F 98% 30.50 in 10.0 mi Calm Calm - N/A   Clear
7:15 AM 8.1 °F - 7.7 °F 98% 30.51 in 10.0 mi Calm Calm - N/A   Clear
7:35 AM 7.7 °F - 7.3 °F 98% 30.51 in 10.0 mi Calm Calm - N/A   Clear
7:55 AM 9.7 °F - 9.3 °F 98% 30.51 in 10.0 mi Calm Calm - N/A   Clear
8:15 AM 12.0 °F - 11.7 °F 98% 30.51 in 10.0 mi Calm Calm - N/A   Clear
8:35 AM 12.0 °F - 11.8 °F 99% 30.51 in 10.0 mi Calm Calm - N/A   Clear
8:55 AM 16.7 °F 11.2 °F 15.8 °F 96% 30.50 in 10.0 mi SSW 3.5 mph - N/A   Clear
9:15 AM 20.3 °F 13.8 °F 13.5 °F 75% 30.50 in 10.0 mi SSW 4.6 mph - N/A   Clear
9:35 AM 22.1 °F 12.8 °F 12.0 °F 65% 30.50 in 10.0 mi South 8.1 mph - N/A   Clear
9:55 AM 23.0 °F 13.1 °F 11.8 °F 62% 30.50 in 10.0 mi South 9.2 mph - N/A   Clear
10:15 AM 24.4 °F 14.2 °F 12.6 °F 61% 30.49 in 10.0 mi South 10.4 mph - N/A   Clear
10:35 AM 25.9 °F 16.0 °F 12.7 °F 58% 30.47 in 10.0 mi South 10.4 mph - N/A   Clear
10:55 AM 27.1 °F 18.9 °F 13.1 °F 56% 30.46 in 10.0 mi South 8.1 mph 16.1 mph N/A   Clear
11:15 AM 28.0 °F 19.3 °F 13.8 °F 55% 30.44 in 10.0 mi SSW 9.2 mph - N/A   Clear
11:35 AM 29.1 °F 21.3 °F 14.0 °F 53% 30.43 in 10.0 mi SSW 8.1 mph - N/A   Clear
11:55 AM 29.5 °F 21.1 °F 14.4 °F 53% 30.41 in 10.0 mi SW 9.2 mph 16.1 mph N/A   Clear
12:15 PM 30.6 °F 23.1 °F 15.4 °F 54% 30.40 in 10.0 mi SW 8.1 mph - N/A   Clear
12:35 PM 31.3 °F 24.7 °F 14.9 °F 51% 30.38 in 10.0 mi SSW 6.9 mph - N/A   Clear
12:55 PM 31.8 °F 24.6 °F 16.0 °F 52% 30.38 in 10.0 mi South 8.1 mph - N/A   Clear
1:15 PM 32.2 °F 24.4 °F 17.1 °F 54% 30.36 in 10.0 mi South 9.2 mph - N/A   Clear
1:35 PM 32.9 °F 25.3 °F 17.8 °F 54% 30.36 in 10.0 mi SSW 9.2 mph - N/A   Clear
1:55 PM 33.3 °F 27.1 °F 18.0 °F 53% 30.36 in 10.0 mi SSW 6.9 mph - N/A   Clear
2:15 PM 34.0 °F 28.8 °F 18.7 °F 54% 30.35 in 10.0 mi South 5.8 mph - N/A   Clear
2:35 PM 34.7 °F 29.6 °F 18.5 °F 52% 30.35 in 10.0 mi South 5.8 mph - N/A   Clear
2:55 PM 34.7 °F 27.5 °F 18.0 °F 51% 30.35 in 10.0 mi South 9.2 mph - N/A   Clear
3:15 PM 35.1 °F 28.6 °F 18.9 °F 52% 30.34 in 10.0 mi South 8.1 mph - N/A   Clear
3:35 PM 35.2 °F 28.8 °F 18.0 °F 49% 30.33 in 10.0 mi South 8.1 mph - N/A   Clear
3:55 PM 35.2 °F 31.2 °F 18.9 °F 51% 30.34 in 10.0 mi South 4.6 mph - N/A   Clear
4:15 PM 34.9 °F 29.0 °F 18.7 °F 52% 30.34 in 10.0 mi South 6.9 mph - N/A   Clear
4:35 PM 34.2 °F 29.0 °F 18.7 °F 53% 30.33 in 10.0 mi South 5.8 mph - N/A   Clear
4:55 PM 33.6 °F 29.4 °F 18.3 °F 54% 30.33 in 10.0 mi South 4.6 mph - N/A   Clear
5:15 PM 32.0 °F 28.7 °F 17.8 °F 56% 30.32 in 10.0 mi South 3.5 mph - N/A   Clear
5:35 PM 31.1 °F - 17.6 °F 57% 30.31 in 10.0 mi Calm Calm - N/A   Clear
5:55 PM 30.2 °F - 17.4 °F 59% 30.30 in 10.0 mi Calm Calm - N/A   Clear
6:15 PM 30.2 °F 25.4 °F 17.2 °F 59% 30.30 in 10.0 mi South 4.6 mph - N/A   Clear
6:35 PM 29.8 °F 23.9 °F 17.2 °F 59% 30.30 in 10.0 mi South 5.8 mph - N/A   Clear
6:55 PM 30.6 °F 25.8 °F 17.2 °F 58% 30.30 in 10.0 mi South 4.6 mph - N/A   Clear
7:15 PM 30.7 °F 24.9 °F 17.4 °F 58% 30.30 in 10.0 mi South 5.8 mph - N/A   Clear
7:35 PM 30.7 °F 26.0 °F 17.6 °F 58% 30.30 in 10.0 mi South 4.6 mph - N/A   Clear
7:55 PM 30.4 °F 25.6 °F 17.4 °F 59% 30.29 in 10.0 mi South 4.6 mph - N/A   Clear
8:15 PM 30.6 °F 24.7 °F 17.4 °F 58% 30.29 in 10.0 mi South 5.8 mph - N/A   Clear
8:35 PM 31.5 °F 24.9 °F 17.8 °F 57% 30.30 in 10.0 mi SSW 6.9 mph - N/A   Clear
8:55 PM 31.1 °F 25.4 °F 17.6 °F 57% 30.30 in 10.0 mi SSW 5.8 mph - N/A   Clear
9:15 PM 30.2 °F 24.3 °F 17.6 °F 60% 30.29 in 10.0 mi South 5.8 mph - N/A   Clear
9:35 PM 30.0 °F 24.1 °F 17.4 °F 59% 30.28 in 10.0 mi South 5.8 mph - N/A   Clear
9:55 PM 29.8 °F - 17.4 °F 60% 30.28 in 10.0 mi Calm Calm - N/A   Clear
10:15 PM 29.1 °F - 17.1 °F 61% 30.27 in 10.0 mi Calm Calm - N/A   Clear
10:35 PM 29.7 °F 24.7 °F 17.6 °F 61% 30.26 in 10.0 mi SSW 4.6 mph - N/A   Clear
10:55 PM 30.2 °F 25.4 °F 18.5 °F 62% 30.26 in 10.0 mi SW 4.6 mph - N/A   Scattered Clouds
11:15 PM 31.1 °F 26.4 °F 19.2 °F 61% 30.25 in 10.0 mi SSW 4.6 mph - N/A   Mostly Cloudy
11:35 PM 30.9 °F 26.2 °F 20.3 °F 65% 30.25 in 10.0 mi SSW 4.6 mph - N/A   Overcast
11:55 PM 32.2 °F 27.7 °F 21.6 °F 65% 30.24 in 10.0 mi SSW 4.6 mph - N/A   Overcast